Year,Month,Day,Hour,Minute,Value (Times are PST for temperature in C)
2006,08,08,00,00,15.20
2006,08,08,00,01,15.20
2006,08,08,00,02,15.30
2006,08,08,00,03,15.30
2006,08,08,00,04,15.40
2006,08,08,00,05,15.50
2006,08,08,00,06,15.50
2006,08,08,00,07,15.60
2006,08,08,00,08,15.70
2006,08,08,00,09,15.80
2006,08,08,00,10,15.90
2006,08,08,00,11,15.90
2006,08,08,00,12,16.10
2006,08,08,00,13,16.10
2006,08,08,00,14,16.20
2006,08,08,00,15,16.20
2006,08,08,00,16,16.30
2006,08,08,00,17,16.30
2006,08,08,00,18,16.30
2006,08,08,00,19,16.30
2006,08,08,00,20,16.30
2006,08,08,00,21,16.40
2006,08,08,00,22,16.40
2006,08,08,00,23,16.30
2006,08,08,00,24,16.30
2006,08,08,00,25,16.30
2006,08,08,00,26,16.20
2006,08,08,00,27,16.10
2006,08,08,00,28,16.10
2006,08,08,00,29,16.10
2006,08,08,00,30,16.10
2006,08,08,00,31,16.10
2006,08,08,00,32,16.10
2006,08,08,00,33,16.00
2006,08,08,00,34,15.90
2006,08,08,00,35,15.90
2006,08,08,00,36,16.00
2006,08,08,00,37,16.10
2006,08,08,00,38,16.10
2006,08,08,00,39,16.20
2006,08,08,00,40,16.20
2006,08,08,00,41,16.10
2006,08,08,00,42,16.10
2006,08,08,00,43,16.10
2006,08,08,00,44,16.00
2006,08,08,00,45,15.90
2006,08,08,00,46,15.90
2006,08,08,00,47,15.80
2006,08,08,00,48,15.80
2006,08,08,00,49,15.90
2006,08,08,00,50,15.90
2006,08,08,00,51,15.90
2006,08,08,00,52,16.00
2006,08,08,00,53,16.10
2006,08,08,00,54,16.10
2006,08,08,00,55,16.20
2006,08,08,00,56,16.30
2006,08,08,00,57,16.30
2006,08,08,00,58,16.30
2006,08,08,00,59,16.30
2006,08,08,01,00,16.40
2006,08,08,01,01,16.40
2006,08,08,01,02,16.40
2006,08,08,01,03,16.40
2006,08,08,01,04,16.40
2006,08,08,01,05,16.40
2006,08,08,01,06,16.40
2006,08,08,01,07,16.40
2006,08,08,01,08,16.40
2006,08,08,01,09,16.30
2006,08,08,01,10,16.30
2006,08,08,01,11,16.30
2006,08,08,01,12,16.30
2006,08,08,01,13,16.30
2006,08,08,01,14,16.30
2006,08,08,01,15,16.30
2006,08,08,01,16,16.30
2006,08,08,01,17,16.30
2006,08,08,01,18,16.30
2006,08,08,01,19,16.30
2006,08,08,01,20,16.30
2006,08,08,01,21,16.30
2006,08,08,01,22,16.20
2006,08,08,01,23,16.20
2006,08,08,01,24,16.20
2006,08,08,01,25,16.20
2006,08,08,01,26,16.20
2006,08,08,01,27,16.10
2006,08,08,01,28,16.10
2006,08,08,01,29,16.10
2006,08,08,01,30,16.10
2006,08,08,01,31,16.10
2006,08,08,01,32,16.10
2006,08,08,01,33,16.10
2006,08,08,01,34,16.10
2006,08,08,01,35,16.10
2006,08,08,01,36,16.10
2006,08,08,01,37,16.10
2006,08,08,01,38,16.10
2006,08,08,01,39,16.10
2006,08,08,01,40,16.10
2006,08,08,01,41,16.10
2006,08,08,01,42,16.10
2006,08,08,01,43,16.10
2006,08,08,01,44,16.10
2006,08,08,01,45,16.10
2006,08,08,01,46,16.10
2006,08,08,01,47,16.10
2006,08,08,01,48,16.10
2006,08,08,01,49,16.10
2006,08,08,01,50,16.10
2006,08,08,01,51,16.10
2006,08,08,01,52,16.10
2006,08,08,01,53,16.10
2006,08,08,01,54,16.10
2006,08,08,01,55,16.10
2006,08,08,01,56,16.10
2006,08,08,01,57,16.10
2006,08,08,01,58,16.00
2006,08,08,01,59,15.90
2006,08,08,02,00,15.90
2006,08,08,02,01,16.00
2006,08,08,02,02,16.10
2006,08,08,02,03,16.10
2006,08,08,02,04,16.20
2006,08,08,02,05,16.20
2006,08,08,02,06,16.30
2006,08,08,02,07,16.30
2006,08,08,02,08,16.30
2006,08,08,02,09,16.40
2006,08,08,02,10,16.40
2006,08,08,02,11,16.40
2006,08,08,02,12,16.40
2006,08,08,02,13,16.40
2006,08,08,02,14,16.40
2006,08,08,02,15,16.40
2006,08,08,02,16,16.40
2006,08,08,02,17,16.30
2006,08,08,02,18,16.30
2006,08,08,02,19,16.20
2006,08,08,02,20,16.20
2006,08,08,02,21,16.10
2006,08,08,02,22,16.10
2006,08,08,02,23,16.10
2006,08,08,02,24,16.10
2006,08,08,02,25,16.00
2006,08,08,02,26,15.90
2006,08,08,02,27,15.90
2006,08,08,02,28,15.90
2006,08,08,02,29,15.80
2006,08,08,02,30,15.80
2006,08,08,02,31,15.80
2006,08,08,02,32,15.80
2006,08,08,02,33,15.80
2006,08,08,02,34,15.80
2006,08,08,02,35,15.80
2006,08,08,02,36,15.70
2006,08,08,02,37,15.70
2006,08,08,02,38,15.70
2006,08,08,02,39,15.70
2006,08,08,02,40,15.70
2006,08,08,02,41,15.60
2006,08,08,02,42,15.60
2006,08,08,02,43,15.60
2006,08,08,02,44,15.60
2006,08,08,02,45,15.60
2006,08,08,02,46,15.50
2006,08,08,02,47,15.50
2006,08,08,02,48,15.50
2006,08,08,02,49,15.40
2006,08,08,02,50,15.40
2006,08,08,02,51,15.30
2006,08,08,02,52,15.30
2006,08,08,02,53,15.30
2006,08,08,02,54,15.30
2006,08,08,02,55,15.20
2006,08,08,02,56,15.20
2006,08,08,02,57,15.20
2006,08,08,02,58,15.20
2006,08,08,02,59,15.20
2006,08,08,03,00,15.20
2006,08,08,03,01,15.20
2006,08,08,03,02,15.20
2006,08,08,03,03,15.20
2006,08,08,03,04,15.20
2006,08,08,03,05,15.20
2006,08,08,03,06,15.10
2006,08,08,03,07,15.10
2006,08,08,03,08,15.00
2006,08,08,03,09,14.90
2006,08,08,03,10,14.70
2006,08,08,03,11,14.50
2006,08,08,03,12,14.40
2006,08,08,03,13,14.20
2006,08,08,03,14,14.20
2006,08,08,03,15,14.10
2006,08,08,03,16,14.00
2006,08,08,03,17,14.00
2006,08,08,03,18,14.00
2006,08,08,03,19,14.00
2006,08,08,03,20,14.10
2006,08,08,03,21,14.10
2006,08,08,03,22,14.10
2006,08,08,03,23,14.10
2006,08,08,03,24,14.20
2006,08,08,03,25,14.20
2006,08,08,03,26,14.20
2006,08,08,03,27,14.20
2006,08,08,03,28,14.20
2006,08,08,03,29,14.20
2006,08,08,03,30,14.20
2006,08,08,03,31,14.20
2006,08,08,03,32,14.10
2006,08,08,03,33,14.00
2006,08,08,03,34,13.90
2006,08,08,03,35,13.80
2006,08,08,03,36,13.70
2006,08,08,03,37,13.60
2006,08,08,03,38,13.50
2006,08,08,03,39,13.40
2006,08,08,03,40,13.40
2006,08,08,03,41,13.40
2006,08,08,03,42,13.40
2006,08,08,03,43,13.40
2006,08,08,03,44,13.40
2006,08,08,03,45,13.30
2006,08,08,03,46,13.30
2006,08,08,03,47,13.30
2006,08,08,03,48,13.30
2006,08,08,03,49,13.30
2006,08,08,03,50,13.30
2006,08,08,03,51,13.30
2006,08,08,03,52,13.30
2006,08,08,03,53,13.30
2006,08,08,03,54,13.40
2006,08,08,03,55,13.50
2006,08,08,03,56,13.60
2006,08,08,03,57,13.60
2006,08,08,03,58,13.60
2006,08,08,03,59,13.60
2006,08,08,04,00,13.60
2006,08,08,04,01,13.50
2006,08,08,04,02,13.50
2006,08,08,04,03,13.50
2006,08,08,04,04,13.40
2006,08,08,04,05,13.40
2006,08,08,04,06,13.30
2006,08,08,04,07,13.30
2006,08,08,04,08,13.30
2006,08,08,04,09,13.20
2006,08,08,04,10,13.20
2006,08,08,04,11,13.10
2006,08,08,04,12,13.10
2006,08,08,04,13,13.10
2006,08,08,04,14,13.10
2006,08,08,04,15,13.00
2006,08,08,04,16,13.00
2006,08,08,04,17,13.00
2006,08,08,04,18,13.00
2006,08,08,04,19,12.90
2006,08,08,04,20,12.90
2006,08,08,04,21,12.90
2006,08,08,04,22,12.80
2006,08,08,04,23,12.80
2006,08,08,04,24,12.70
2006,08,08,04,25,12.60
2006,08,08,04,26,12.60
2006,08,08,04,27,12.50
2006,08,08,04,28,12.50
2006,08,08,04,29,12.60
2006,08,08,04,30,12.60
2006,08,08,04,31,12.60
2006,08,08,04,32,12.60
2006,08,08,04,33,12.70
2006,08,08,04,34,12.70
2006,08,08,04,35,12.70
2006,08,08,04,36,12.70
2006,08,08,04,37,12.70
2006,08,08,04,38,12.70
2006,08,08,04,39,12.70
2006,08,08,04,40,12.70
2006,08,08,04,41,12.80
2006,08,08,04,42,12.80
2006,08,08,04,43,12.80
2006,08,08,04,44,12.80
2006,08,08,04,45,12.80
2006,08,08,04,46,12.80
2006,08,08,04,47,12.80
2006,08,08,04,48,12.80
2006,08,08,04,49,12.80
2006,08,08,04,50,12.80
2006,08,08,04,51,12.90
2006,08,08,04,52,12.90
2006,08,08,04,53,12.90
2006,08,08,04,54,12.90
2006,08,08,04,55,12.80
2006,08,08,04,56,12.70
2006,08,08,04,57,12.70
2006,08,08,04,58,12.60
2006,08,08,04,59,12.60
2006,08,08,05,00,12.60
2006,08,08,05,01,12.60
2006,08,08,05,02,12.50
2006,08,08,05,03,12.50
2006,08,08,05,04,12.50
2006,08,08,05,05,12.40
2006,08,08,05,06,12.30
2006,08,08,05,07,12.30
2006,08,08,05,08,12.20
2006,08,08,05,09,12.20
2006,08,08,05,10,12.20
2006,08,08,05,11,12.20
2006,08,08,05,12,12.30
2006,08,08,05,13,12.30
2006,08,08,05,14,12.30
2006,08,08,05,15,12.30
2006,08,08,05,16,12.40
2006,08,08,05,17,12.40
2006,08,08,05,18,12.40
2006,08,08,05,19,12.40
2006,08,08,05,20,12.50
2006,08,08,05,21,12.40
2006,08,08,05,22,12.40
2006,08,08,05,23,12.30
2006,08,08,05,24,12.30
2006,08,08,05,25,12.30
2006,08,08,05,26,12.30
2006,08,08,05,27,12.30
2006,08,08,05,28,12.30
2006,08,08,05,29,12.30
2006,08,08,05,30,12.30
2006,08,08,05,31,12.30
2006,08,08,05,32,12.30
2006,08,08,05,33,12.40
2006,08,08,05,34,12.50
2006,08,08,05,35,12.60
2006,08,08,05,36,12.70
2006,08,08,05,37,12.80
2006,08,08,05,38,12.90
2006,08,08,05,39,13.00
2006,08,08,05,40,13.00
2006,08,08,05,41,13.00
2006,08,08,05,42,13.00
2006,08,08,05,43,13.10
2006,08,08,05,44,13.00
2006,08,08,05,45,13.00
2006,08,08,05,46,12.90
2006,08,08,05,47,12.80
2006,08,08,05,48,12.70
2006,08,08,05,49,12.60
2006,08,08,05,50,12.40
2006,08,08,05,51,12.30
2006,08,08,05,52,12.10
2006,08,08,05,53,11.90
2006,08,08,05,54,11.80
2006,08,08,05,55,11.70
2006,08,08,05,56,11.70
2006,08,08,05,57,11.70
2006,08,08,05,58,11.70
2006,08,08,05,59,11.70
2006,08,08,06,00,11.80
2006,08,08,06,01,11.80
2006,08,08,06,02,11.80
2006,08,08,06,03,11.80
2006,08,08,06,04,11.90
2006,08,08,06,05,11.90
2006,08,08,06,06,11.90
2006,08,08,06,07,12.00
2006,08,08,06,08,12.20
2006,08,08,06,09,12.40
2006,08,08,06,10,12.50
2006,08,08,06,11,12.70
2006,08,08,06,12,12.90
2006,08,08,06,13,13.00
2006,08,08,06,14,13.00
2006,08,08,06,15,13.10
2006,08,08,06,16,13.10
2006,08,08,06,17,13.00
2006,08,08,06,18,12.90
2006,08,08,06,19,12.90
2006,08,08,06,20,13.00
2006,08,08,06,21,13.00
2006,08,08,06,22,13.10
2006,08,08,06,23,13.20
2006,08,08,06,24,13.20
2006,08,08,06,25,13.30
2006,08,08,06,26,13.30
2006,08,08,06,27,13.40
2006,08,08,06,28,13.40
2006,08,08,06,29,13.40
2006,08,08,06,30,13.40
2006,08,08,06,31,13.40
2006,08,08,06,32,13.40
2006,08,08,06,33,13.30
2006,08,08,06,34,13.30
2006,08,08,06,35,13.30
2006,08,08,06,36,13.30
2006,08,08,06,37,13.30
2006,08,08,06,38,13.30
2006,08,08,06,39,13.30
2006,08,08,06,40,13.30
2006,08,08,06,41,13.30
2006,08,08,06,42,13.30
2006,08,08,06,43,13.30
2006,08,08,06,44,13.30
2006,08,08,06,45,13.20
2006,08,08,06,46,13.10
2006,08,08,06,47,13.00
2006,08,08,06,48,12.90
2006,08,08,06,49,12.80
2006,08,08,06,50,12.80
2006,08,08,06,51,12.80
2006,08,08,06,52,12.80
2006,08,08,06,53,12.80
2006,08,08,06,54,12.80
2006,08,08,06,55,12.80
2006,08,08,06,56,12.80
2006,08,08,06,57,12.80
2006,08,08,06,58,12.80
2006,08,08,06,59,12.90
2006,08,08,07,00,13.00
2006,08,08,07,01,13.00
2006,08,08,07,02,13.10
2006,08,08,07,03,13.10
2006,08,08,07,04,13.20
2006,08,08,07,05,13.30
2006,08,08,07,06,13.40
2006,08,08,07,07,13.50
2006,08,08,07,08,13.60
2006,08,08,07,09,13.60
2006,08,08,07,10,13.70
2006,08,08,07,11,13.70
2006,08,08,07,12,13.80
2006,08,08,07,13,13.90
2006,08,08,07,14,14.00
2006,08,08,07,15,14.20
2006,08,08,07,16,14.30
2006,08,08,07,17,14.50
2006,08,08,07,18,14.60
2006,08,08,07,19,14.70
2006,08,08,07,20,14.80
2006,08,08,07,21,14.90
2006,08,08,07,22,15.00
2006,08,08,07,23,15.10
2006,08,08,07,24,15.10
2006,08,08,07,25,15.10
2006,08,08,07,26,15.20
2006,08,08,07,27,15.50
2006,08,08,07,28,15.60
2006,08,08,07,29,15.60
2006,08,08,07,30,15.80
2006,08,08,07,31,15.80
2006,08,08,07,32,15.80
2006,08,08,07,33,15.80
2006,08,08,07,34,15.80
2006,08,08,07,35,15.80
2006,08,08,07,36,15.60
2006,08,08,07,37,15.60
2006,08,08,07,38,15.50
2006,08,08,07,39,15.30
2006,08,08,07,40,15.30
2006,08,08,07,41,15.20
2006,08,08,07,42,15.20
2006,08,08,07,43,15.20
2006,08,08,07,44,15.10
2006,08,08,07,45,15.10
2006,08,08,07,46,15.00
2006,08,08,07,47,15.00
2006,08,08,07,48,14.90
2006,08,08,07,49,14.80
2006,08,08,07,50,14.70
2006,08,08,07,51,14.60
2006,08,08,07,52,14.60
2006,08,08,07,53,14.50
2006,08,08,07,54,14.40
2006,08,08,07,55,14.30
2006,08,08,07,56,14.30
2006,08,08,07,57,14.30
2006,08,08,07,58,14.30
2006,08,08,07,59,14.30
2006,08,08,08,00,14.30
2006,08,08,08,01,14.30
2006,08,08,08,02,14.40
2006,08,08,08,03,14.30
2006,08,08,08,04,14.30
2006,08,08,08,05,14.30
2006,08,08,08,06,14.30
2006,08,08,08,07,14.20
2006,08,08,08,08,14.20
2006,08,08,08,09,14.20
2006,08,08,08,10,14.20
2006,08,08,08,11,14.20
2006,08,08,08,12,14.20
2006,08,08,08,13,14.20
2006,08,08,08,14,14.30
2006,08,08,08,15,14.20
2006,08,08,08,16,14.20
2006,08,08,08,17,14.20
2006,08,08,08,18,14.20
2006,08,08,08,19,14.20
2006,08,08,08,20,14.20
2006,08,08,08,21,14.20
2006,08,08,08,22,14.20
2006,08,08,08,23,14.20
2006,08,08,08,24,14.20
2006,08,08,08,25,14.10
2006,08,08,08,26,14.10
2006,08,08,08,27,14.00
2006,08,08,08,28,14.00
2006,08,08,08,29,14.00
2006,08,08,08,30,13.90
2006,08,08,08,31,13.90
2006,08,08,08,32,13.90
2006,08,08,08,33,13.80
2006,08,08,08,34,13.80
2006,08,08,08,35,13.90
2006,08,08,08,36,13.90
2006,08,08,08,37,13.90
2006,08,08,08,38,13.90
2006,08,08,08,39,13.90
2006,08,08,08,40,14.00
2006,08,08,08,41,14.00
2006,08,08,08,42,14.00
2006,08,08,08,43,14.00
2006,08,08,08,44,14.00
2006,08,08,08,45,14.10
2006,08,08,08,46,14.10
2006,08,08,08,47,14.20
2006,08,08,08,48,14.20
2006,08,08,08,49,14.20
2006,08,08,08,50,14.20
2006,08,08,08,51,14.10
2006,08,08,08,52,14.10
2006,08,08,08,53,14.10
2006,08,08,08,54,14.00
2006,08,08,08,55,14.00
2006,08,08,08,56,14.00
2006,08,08,08,57,14.00
2006,08,08,08,58,14.00
2006,08,08,08,59,14.00
2006,08,08,09,00,14.00
2006,08,08,09,01,14.10
2006,08,08,09,02,14.10
2006,08,08,09,03,14.20
2006,08,08,09,04,14.20
2006,08,08,09,05,14.20
2006,08,08,09,06,14.20
2006,08,08,09,07,14.20
2006,08,08,09,08,14.20
2006,08,08,09,09,14.20
2006,08,08,09,10,14.20
2006,08,08,09,11,14.20
2006,08,08,09,12,14.30
2006,08,08,09,13,14.30
2006,08,08,09,14,14.30
2006,08,08,09,15,14.40
2006,08,08,09,16,14.40
2006,08,08,09,17,14.40
2006,08,08,09,18,14.40
2006,08,08,09,19,14.40
2006,08,08,09,20,14.50
2006,08,08,09,21,14.50
2006,08,08,09,22,14.50
2006,08,08,09,23,14.40
2006,08,08,09,24,14.50
2006,08,08,09,25,14.50
2006,08,08,09,26,14.50
2006,08,08,09,27,14.50
2006,08,08,09,28,14.50
2006,08,08,09,29,14.50
2006,08,08,09,30,14.40
2006,08,08,09,31,14.40
2006,08,08,09,32,14.40
2006,08,08,09,33,14.50
2006,08,08,09,34,14.50
2006,08,08,09,35,14.50
2006,08,08,09,36,14.50
2006,08,08,09,37,14.50
2006,08,08,09,38,14.60
2006,08,08,09,39,14.70
2006,08,08,09,40,14.60
2006,08,08,09,41,14.60
2006,08,08,09,42,14.60
2006,08,08,09,43,14.60
2006,08,08,09,44,14.60
2006,08,08,09,45,14.60
2006,08,08,09,46,14.60
2006,08,08,09,47,14.70
2006,08,08,09,48,14.70
2006,08,08,09,49,14.70
2006,08,08,09,50,14.70
2006,08,08,09,51,14.70
2006,08,08,09,52,14.70
2006,08,08,09,53,14.70
2006,08,08,09,54,14.70
2006,08,08,09,55,14.80
2006,08,08,09,56,14.80
2006,08,08,09,57,14.80
2006,08,08,09,58,14.80
2006,08,08,09,59,14.80
2006,08,08,10,00,14.80
2006,08,08,10,01,14.80
2006,08,08,10,02,14.80
2006,08,08,10,03,14.80
2006,08,08,10,04,14.80
2006,08,08,10,05,14.80
2006,08,08,10,06,14.70
2006,08,08,10,07,14.60
2006,08,08,10,08,14.70
2006,08,08,10,09,14.70
2006,08,08,10,10,14.80
2006,08,08,10,11,14.80
2006,08,08,10,12,14.80
2006,08,08,10,13,14.80
2006,08,08,10,14,14.80
2006,08,08,10,15,14.80
2006,08,08,10,16,14.80
2006,08,08,10,17,14.80
2006,08,08,10,18,14.80
2006,08,08,10,19,14.90
2006,08,08,10,20,14.80
2006,08,08,10,21,14.80
2006,08,08,10,22,14.90
2006,08,08,10,23,15.00
2006,08,08,10,24,15.00
2006,08,08,10,25,15.10
2006,08,08,10,26,15.20
2006,08,08,10,27,15.20
2006,08,08,10,28,15.30
2006,08,08,10,29,15.20
2006,08,08,10,30,15.20
2006,08,08,10,31,15.20
2006,08,08,10,32,15.30
2006,08,08,10,33,15.30
2006,08,08,10,34,15.20
2006,08,08,10,35,15.30
2006,08,08,10,36,15.30
2006,08,08,10,37,15.30
2006,08,08,10,38,15.30
2006,08,08,10,39,15.20
2006,08,08,10,40,15.20
2006,08,08,10,41,15.20
2006,08,08,10,42,15.20
2006,08,08,10,43,15.30
2006,08,08,10,44,15.20
2006,08,08,10,45,15.20
2006,08,08,10,46,15.20
2006,08,08,10,47,15.20
2006,08,08,10,48,15.20
2006,08,08,10,49,15.20
2006,08,08,10,50,15.20
2006,08,08,10,51,15.20
2006,08,08,10,52,15.20
2006,08,08,10,53,15.30
2006,08,08,10,54,15.30
2006,08,08,10,55,15.30
2006,08,08,10,56,15.30
2006,08,08,10,57,15.40
2006,08,08,10,58,15.40
2006,08,08,10,59,15.40
2006,08,08,11,00,15.40
2006,08,08,11,01,15.40
2006,08,08,11,02,15.40
2006,08,08,11,03,15.40
2006,08,08,11,04,15.30
2006,08,08,11,05,15.30
2006,08,08,11,06,15.30
2006,08,08,11,07,15.30
2006,08,08,11,08,15.30
2006,08,08,11,09,15.30
2006,08,08,11,10,15.30
2006,08,08,11,11,15.20
2006,08,08,11,12,15.20
2006,08,08,11,13,15.10
2006,08,08,11,14,15.20
2006,08,08,11,15,15.20
2006,08,08,11,16,15.20
2006,08,08,11,17,15.20
2006,08,08,11,18,15.20
2006,08,08,11,19,15.10
2006,08,08,11,20,15.10
2006,08,08,11,21,15.20
2006,08,08,11,22,15.10
2006,08,08,11,23,15.00
2006,08,08,11,24,15.00
2006,08,08,11,25,15.00
2006,08,08,11,26,15.00
2006,08,08,11,27,15.10
2006,08,08,11,28,15.10
2006,08,08,11,29,15.20
2006,08,08,11,30,15.20
2006,08,08,11,31,15.10
2006,08,08,11,32,15.10
2006,08,08,11,33,15.10
2006,08,08,11,34,15.10
2006,08,08,11,35,15.10
2006,08,08,11,36,15.10
2006,08,08,11,37,15.10
2006,08,08,11,38,15.10
2006,08,08,11,39,15.10
2006,08,08,11,40,15.00
2006,08,08,11,41,15.00
2006,08,08,11,42,15.00
2006,08,08,11,43,15.00
2006,08,08,11,44,15.00
2006,08,08,11,45,15.00
2006,08,08,11,46,15.00
2006,08,08,11,47,14.90
2006,08,08,11,48,14.90
2006,08,08,11,49,15.00
2006,08,08,11,50,15.00
2006,08,08,11,51,15.00
2006,08,08,11,52,15.00
2006,08,08,11,53,15.00
2006,08,08,11,54,15.00
2006,08,08,11,55,15.10
2006,08,08,11,56,15.10
2006,08,08,11,57,15.10
2006,08,08,11,58,15.20
2006,08,08,11,59,15.20
2006,08,08,12,00,15.30
2006,08,08,12,01,15.20
2006,08,08,12,02,15.20
2006,08,08,12,03,15.30
2006,08,08,12,04,15.20
2006,08,08,12,05,15.20
2006,08,08,12,06,15.20
2006,08,08,12,07,15.10
2006,08,08,12,08,15.10
2006,08,08,12,09,15.10
2006,08,08,12,10,15.10
2006,08,08,12,11,15.10
2006,08,08,12,12,15.20
2006,08,08,12,13,15.20
2006,08,08,12,14,15.20
2006,08,08,12,15,15.30
2006,08,08,12,16,15.30
2006,08,08,12,17,15.30
2006,08,08,12,18,15.30
2006,08,08,12,19,15.30
2006,08,08,12,20,15.30
2006,08,08,12,21,15.30
2006,08,08,12,22,15.30
2006,08,08,12,23,15.30
2006,08,08,12,24,15.30
2006,08,08,12,25,15.30
2006,08,08,12,26,15.30
2006,08,08,12,27,15.30
2006,08,08,12,28,15.30
2006,08,08,12,29,15.30
2006,08,08,12,30,15.30
2006,08,08,12,31,15.30
2006,08,08,12,32,15.30
2006,08,08,12,33,15.30
2006,08,08,12,34,15.40
2006,08,08,12,35,15.40
2006,08,08,12,36,15.40
2006,08,08,12,37,15.50
2006,08,08,12,38,15.50
2006,08,08,12,39,15.60
2006,08,08,12,40,15.60
2006,08,08,12,41,15.60
2006,08,08,12,42,15.60
2006,08,08,12,43,15.60
2006,08,08,12,44,15.70
2006,08,08,12,45,15.70
2006,08,08,12,46,15.80
2006,08,08,12,47,15.80
2006,08,08,12,48,15.80
2006,08,08,12,49,15.80
2006,08,08,12,50,15.90
2006,08,08,12,51,15.90
2006,08,08,12,52,15.90
2006,08,08,12,53,15.80
2006,08,08,12,54,15.90
2006,08,08,12,55,16.00
2006,08,08,12,56,16.10
2006,08,08,12,57,16.00
2006,08,08,12,58,16.00
2006,08,08,12,59,16.10
2006,08,08,13,00,16.10
2006,08,08,13,01,16.10
2006,08,08,13,02,16.10
2006,08,08,13,03,16.20
2006,08,08,13,04,16.20
2006,08,08,13,05,16.20
2006,08,08,13,06,16.20
2006,08,08,13,07,16.30
2006,08,08,13,08,16.30
2006,08,08,13,09,16.40
2006,08,08,13,10,16.40
2006,08,08,13,11,16.40
2006,08,08,13,12,16.60
2006,08,08,13,13,16.60
2006,08,08,13,14,16.70
2006,08,08,13,15,16.70
2006,08,08,13,16,16.80
2006,08,08,13,17,16.90
2006,08,08,13,18,16.90
2006,08,08,13,19,17.00
2006,08,08,13,20,17.00
2006,08,08,13,21,17.00
2006,08,08,13,22,17.00
2006,08,08,13,23,17.10
2006,08,08,13,24,17.10
2006,08,08,13,25,17.10
2006,08,08,13,26,17.20
2006,08,08,13,27,17.20
2006,08,08,13,28,17.20
2006,08,08,13,29,17.10
2006,08,08,13,30,17.10
2006,08,08,13,31,17.10
2006,08,08,13,32,17.00
2006,08,08,13,33,17.00
2006,08,08,13,34,17.00
2006,08,08,13,35,17.00
2006,08,08,13,36,17.00
2006,08,08,13,37,17.10
2006,08,08,13,38,17.10
2006,08,08,13,39,17.10
2006,08,08,13,40,17.10
2006,08,08,13,41,17.10
2006,08,08,13,42,17.00
2006,08,08,13,43,17.00
2006,08,08,13,44,17.00
2006,08,08,13,45,17.00
2006,08,08,13,46,17.00
2006,08,08,13,47,17.10
2006,08,08,13,48,17.20
2006,08,08,13,49,17.20
2006,08,08,13,50,17.30
2006,08,08,13,51,17.30
2006,08,08,13,52,17.30
2006,08,08,13,53,17.30
2006,08,08,13,54,17.40
2006,08,08,13,55,17.50
2006,08,08,13,56,17.60
2006,08,08,13,57,17.70
2006,08,08,13,58,17.70
2006,08,08,13,59,17.80
2006,08,08,14,00,17.90
2006,08,08,14,01,17.80
2006,08,08,14,02,17.80
2006,08,08,14,03,17.70
2006,08,08,14,04,17.70
2006,08,08,14,05,17.80
2006,08,08,14,06,17.70
2006,08,08,14,07,17.70
2006,08,08,14,08,17.70
2006,08,08,14,09,17.70
2006,08,08,14,10,17.70
2006,08,08,14,11,17.70
2006,08,08,14,12,17.70
2006,08,08,14,13,17.50
2006,08,08,14,14,17.40
2006,08,08,14,15,17.30
2006,08,08,14,16,17.20
2006,08,08,14,17,17.10
2006,08,08,14,18,17.10
2006,08,08,14,19,17.00
2006,08,08,14,20,17.00
2006,08,08,14,21,17.00
2006,08,08,14,22,17.00
2006,08,08,14,23,17.00
2006,08,08,14,24,17.00
2006,08,08,14,25,17.00
2006,08,08,14,26,17.00
2006,08,08,14,27,16.90
2006,08,08,14,28,16.90
2006,08,08,14,29,16.90
2006,08,08,14,30,16.80
2006,08,08,14,31,16.70
2006,08,08,14,32,16.70
2006,08,08,14,33,16.70
2006,08,08,14,34,16.70
2006,08,08,14,35,16.60
2006,08,08,14,36,16.40
2006,08,08,14,37,16.40
2006,08,08,14,38,16.40
2006,08,08,14,39,16.40
2006,08,08,14,40,16.40
2006,08,08,14,41,16.40
2006,08,08,14,42,16.40
2006,08,08,14,43,16.40
2006,08,08,14,44,16.40
2006,08,08,14,45,16.40
2006,08,08,14,46,16.40
2006,08,08,14,47,16.40
2006,08,08,14,48,16.40
2006,08,08,14,49,16.40
2006,08,08,14,50,16.40
2006,08,08,14,51,16.40
2006,08,08,14,52,16.50
2006,08,08,14,53,16.60
2006,08,08,14,54,16.60
2006,08,08,14,55,16.60
2006,08,08,14,56,16.60
2006,08,08,14,57,16.70
2006,08,08,14,58,16.70
2006,08,08,14,59,16.70
2006,08,08,15,00,16.80
2006,08,08,15,01,16.80
2006,08,08,15,02,16.90
2006,08,08,15,03,17.00
2006,08,08,15,04,17.00
2006,08,08,15,05,17.00
2006,08,08,15,06,16.90
2006,08,08,15,07,16.90
2006,08,08,15,08,16.90
2006,08,08,15,09,16.90
2006,08,08,15,10,16.90
2006,08,08,15,11,16.90
2006,08,08,15,12,16.90
2006,08,08,15,13,16.90
2006,08,08,15,14,16.80
2006,08,08,15,15,16.80
2006,08,08,15,16,16.70
2006,08,08,15,17,16.70
2006,08,08,15,18,16.60
2006,08,08,15,19,16.60
2006,08,08,15,20,16.50
2006,08,08,15,21,16.30
2006,08,08,15,22,16.30
2006,08,08,15,23,16.20
2006,08,08,15,24,16.10
2006,08,08,15,25,16.10
2006,08,08,15,26,16.10
2006,08,08,15,27,16.10
2006,08,08,15,28,16.00
2006,08,08,15,29,15.90
2006,08,08,15,30,15.80
2006,08,08,15,31,15.80
2006,08,08,15,32,15.80
2006,08,08,15,33,15.80
2006,08,08,15,34,15.80
2006,08,08,15,35,15.70
2006,08,08,15,36,15.70
2006,08,08,15,37,15.70
2006,08,08,15,38,15.70
2006,08,08,15,39,15.70
2006,08,08,15,40,15.70
2006,08,08,15,41,15.70
2006,08,08,15,42,15.70
2006,08,08,15,43,15.70
2006,08,08,15,44,15.70
2006,08,08,15,45,15.80
2006,08,08,15,46,15.70
2006,08,08,15,47,15.70
2006,08,08,15,48,15.80
2006,08,08,15,49,15.80
2006,08,08,15,50,15.80
2006,08,08,15,51,15.80
2006,08,08,15,52,15.80
2006,08,08,15,53,15.80
2006,08,08,15,54,15.80
2006,08,08,15,55,15.80
2006,08,08,15,56,15.90
2006,08,08,15,57,15.90
2006,08,08,15,58,16.00
2006,08,08,15,59,16.10
2006,08,08,16,00,16.10
2006,08,08,16,01,16.10
2006,08,08,16,02,16.10
2006,08,08,16,03,16.10
2006,08,08,16,04,16.10
2006,08,08,16,05,16.10
2006,08,08,16,06,16.00
2006,08,08,16,07,15.90
2006,08,08,16,08,15.90
2006,08,08,16,09,15.90
2006,08,08,16,10,15.90
2006,08,08,16,11,15.90
2006,08,08,16,12,15.90
2006,08,08,16,13,15.90
2006,08,08,16,14,15.90
2006,08,08,16,15,15.90
2006,08,08,16,16,15.90
2006,08,08,16,17,16.00
2006,08,08,16,18,16.10
2006,08,08,16,19,16.10
2006,08,08,16,20,16.10
2006,08,08,16,21,16.10
2006,08,08,16,22,16.10
2006,08,08,16,23,16.10
2006,08,08,16,24,16.10
2006,08,08,16,25,16.10
2006,08,08,16,26,16.10
2006,08,08,16,27,16.10
2006,08,08,16,28,16.10
2006,08,08,16,29,16.10
2006,08,08,16,30,16.10
2006,08,08,16,31,16.20
2006,08,08,16,32,16.20
2006,08,08,16,33,16.20
2006,08,08,16,34,16.20
2006,08,08,16,35,16.20
2006,08,08,16,36,16.20
2006,08,08,16,37,16.20
2006,08,08,16,38,16.30
2006,08,08,16,39,16.30
2006,08,08,16,40,16.30
2006,08,08,16,41,16.30
2006,08,08,16,42,16.30
2006,08,08,16,43,16.40
2006,08,08,16,44,16.40
2006,08,08,16,45,16.40
2006,08,08,16,46,16.40
2006,08,08,16,47,16.40
2006,08,08,16,48,16.40
2006,08,08,16,49,16.40
2006,08,08,16,50,16.40
2006,08,08,16,51,16.40
2006,08,08,16,52,16.50
2006,08,08,16,53,16.60
2006,08,08,16,54,16.60
2006,08,08,16,55,16.60
2006,08,08,16,56,16.60
2006,08,08,16,57,16.70
2006,08,08,16,58,16.70
2006,08,08,16,59,16.70
2006,08,08,17,00,16.70
2006,08,08,17,01,16.70
2006,08,08,17,02,16.80
2006,08,08,17,03,16.80
2006,08,08,17,04,16.90
2006,08,08,17,05,16.90
2006,08,08,17,06,16.90
2006,08,08,17,07,17.00
2006,08,08,17,08,17.00
2006,08,08,17,09,17.00
2006,08,08,17,10,17.00
2006,08,08,17,11,17.20
2006,08,08,17,12,17.20
2006,08,08,17,13,17.30
2006,08,08,17,14,17.30
2006,08,08,17,15,17.30
2006,08,08,17,16,17.30
2006,08,08,17,17,17.30
2006,08,08,17,18,17.30
2006,08,08,17,19,17.40